Location: Dana
(41.8364°N, 106.7042°W)
Time: 12:49:08
(UTC+00:00)

ISS - Pass Details

Date: 22 April 2026
Orbit: 414 x 424 km, 51.6° (Epoch: 12 May)

Event Time Altitude Azimuth Distance (km) Brightness Sun altitude
Exits shadow 09:41:41 22° 93° (E) 982 -1.5 -25.1°
Drops below altitude 10° 09:43:16 10° 73° (ENE) 1,499 -0.2 -24.8°
Sets 09:45:31 0° 63° (ENE) 2,369 1.2 -24.6°
